This demonstration page uses our WeatherBlox Daily Observations layout. Learn more.

Left ArrowRight Arrow

34.02893, -84.19858

Hourly Observations for August 23, 2022

Temp ( °F °C ) Dew Point ( °F °C ) Humidity (%) Winds ( mph kmh ) Pressure ( in mb ) Visibility ( mi km ) Precip ( " mm )
12:53 am 00:53 Clear 73 22.8 70 21.1 90 90 Calm 29.95 1014 10 16 0.00 0.00
1:53 am 01:53 Clear 73 22.8 70 21.1 90 90 WNW 5 7 29.93 1014 10 16 0.00 0.00
2:43 am 02:43 Mostly Clear 72 22.2 70 21.1 93 93 NW 6 9 29.94 1014 10 16 0.00 0.00
2:53 am 02:53 Partly Cloudy 72 22.2 70 21.1 93 93 WNW 3 6 29.92 1013 10 16 0.00 0.00
3:03 am 03:03 Mostly Cloudy 72 22.2 70 21.1 93 93 NW 6 9 29.94 1014 10 16 0.00 0.00
3:53 am 03:53 Cloudy 73 22.8 70 21.1 90 90 NW 5 7 29.90 1013 9 14 0.00 0.00
4:53 am 04:53 Partly Cloudy 72 22.2 70 21.1 93 93 WNW 5 7 29.90 1012 10 16 0.00 0.00
5:24 am 05:24 Mostly Cloudy 72 22.2 70 21.1 93 93 W 3 6 29.92 1013 10 16 0.00 0.00
5:53 am 05:53 Mostly Cloudy 72 22.2 70 21.1 93 93 WNW 3 6 29.90 1013 9 14 0.00 0.00
6:53 am 06:53 Mostly Cloudy 72 22.2 70 21.1 93 93 W 3 6 29.92 1013 9 14 0.00 0.00
7:53 am 07:53 Mostly Cloudy 72 22.2 70 21.1 93 93 W 3 6 29.93 1014 7 11 0.00 0.00
8:53 am 08:53 Mostly Cloudy with Mist and Fog 73 22.8 70 21.1 90 90 W 6 9 29.95 1014 6 10 0.00 0.00
9:33 am 09:33 Cloudy 73 22.8 70 21.1 90 90 W 3 6 29.96 1015 7 11 0.00 0.00
9:39 am 09:39 Cloudy 73 22.8 71 21.7 94 94 W 3 6 29.96 1015 7 11 0.00 0.00
9:53 am 09:53 Cloudy 74 23.3 71 21.7 91 91 W 6 9 29.96 1015 7 11 0.00 0.00
10:53 am 10:53 Mostly Cloudy 75 23.9 70 21.1 84 84 WSW 3 6 29.97 1015 9 14 0.00 0.00
11:21 am 11:21 Partly Cloudy 77 25 71 21.7 82 82 VRB 3 6 29.98 1015 10 16 0.00 0.00
11:53 am 11:53 Mostly Sunny 78 25.6 70 21.1 76 76 WNW 5 7 29.97 1015 10 16 0.00 0.00
12:53 pm 12:53 Mostly Sunny 82 27.8 71 21.7 69 69 undefined N/A 29.95 1014 10 16 0.00 0.00
1:53 pm 13:53 Mostly Sunny 84 28.9 67 19.4 57 57 VRB 5 7 29.94 1014 10 16 0.00 0.00
2:53 pm 14:53 Sunny 87 30.6 67 19.4 51 51 NNW 7 11 29.92 1013 10 16 0.00 0.00
3:53 pm 15:53 Mostly Cloudy 87 30.6 68 20 53 53 NNE 8 13 29.90 1013 10 16 0.00 0.00
4:53 pm 16:53 Sunny 86 30 65 18.3 50 50 NNE 6 9 29.89 1012 10 16 0.00 0.00
5:53 pm 17:53 Sunny 85 29.4 65 18.3 51 51 NNE 6 9 29.89 1012 10 16 0.00 0.00
6:53 pm 18:53 Sunny 82 27.8 65 18.3 56 56 N 6 9 29.90 1012 10 16 0.00 0.00
7:53 pm 19:53 Sunny 78 25.6 67 19.4 69 69 N 5 7 29.90 1013 10 16 0.00 0.00
8:53 pm 20:53 Clear 77 25 68 20 74 74 Calm 29.92 1013 10 16 0.00 0.00
9:53 pm 21:53 Clear 76 24.4 68 20 77 77 SW 5 7 29.95 1014 10 16 0.00 0.00
10:53 pm 22:53 Mostly Clear 75 23.9 70 21.1 84 84 SSW 3 6 29.96 1015 10 16 0.00 0.00
11:53 pm 23:53 Mostly Cloudy 75 23.9 71 21.7 88 88 Calm 29.96 1015 10 16 0.00 0.00

Powered by AerisWeather